Regional Weather Roundup
Issued by NWS Sioux Falls, SD

Home | Current Version | Previous Version | Text Only | Print | Product List | Glossary On
Versions: 1 2 3 4 5 6 7 8 9 10 11 12 13 14 15 16 17 18 19 20 21 22 23 24 25 26 27 28 29 30 31 32 33 34 35 36 37 38 39 40 41 42 43 44 45 46 47 48 49 50
000
ASUS43 KFSD 250010
RWRFSD

WEATHER ROUNDUP FOR SE SOUTH DAKOTA/SW MINNESOTA/NW IOWA
NATIONAL WEATHER SERVICE SIOUX FALLS SD
700 PM CDT MON JUL 24 2017

NOTE: "FAIR" INDICATES FEW OR NO CLOUDS BELOW 12,000 FEET WITH NO
SIGNIFICANT WEATHER AND OR OBSTRUCTIONS TO VISIBILITY.


SDZ038>040-050-052>070-250100-
SOUTHEAST SOUTH DAKOTA

CITY           SKY/WX    TMP DP  RH WIND       PRES   REMARKS
BROOKINGS      CLOUDY    79  65  62 SE17      29.93F
CHAMBERLAIN    MOSUNNY   91  70  51 SE16G22   29.76R HX  96
6HR MIN TEMP:  88; 6HR MAX TEMP:  97;

HURON          CLOUDY    82  66  58 SE24G33   29.81F
6HR MIN TEMP:  81; 6HR MAX TEMP:  85;

MADISON        FAIR      77  64  65 SE16      29.93S
MITCHELL       SUNNY     86  66  51 SE22G30   29.83F
6HR MIN TEMP:  83; 6HR MAX TEMP:  89;

SIOUX FALLS    MOSUNNY   82  64  54 S17G26    29.93R
6HR MIN TEMP:  78; 6HR MAX TEMP:  84;

WINNER         MOCLDY    84  60  44 SW12G30   29.80R THUNDER
YANKTON        SUNNY     85  68  56 SE20G28   29.88F
$$

MNZ071-072-080-081-089-090-097-098-250100-
SOUTHWEST MINNESOTA

CITY           SKY/WX    TMP DP  RH WIND       PRES   REMARKS
FAIRMONT       MOSUNNY   76  63  64 SE9       30.01S
JACKSON        SUNNY     77  61  57 SE6       30.01S
LUVERNE        SUNNY     79  61  53 S10       29.96S
MARSHALL       MOSUNNY   77  65  66 SE14      29.97F
6HR MIN TEMP:  76; 6HR MAX TEMP:  80;

MONTEVIDEO     MOSUNNY   75  63  64 S9        29.96F
PIPESTONE      SUNNY     79  64  61 S12       29.96F
REDWOOD FALLS  MOSUNNY   76  62  62 SE9       29.99S
TRACY          MOSUNNY   78  66  67 SE8       29.99F
WINDOM         SUNNY     77  63  61 SE7       30.00S
WORTHINGTON    SUNNY     77  64  64 SE12      29.99S
$$

IAZ001>003-012>014-020>022-031-032-NEZ013-014-SDZ071-250100-
NORTHWEST IOWA

CITY           SKY/WX    TMP DP  RH WIND       PRES   REMARKS
CHEROKEE       SUNNY     80  63  55 SE12      29.97S
DENISON        SUNNY     81  64  57 S9        29.99S
ESTHERVILLE    SUNNY     76  65  68 SE12      29.99F
ORANGE CITY    SUNNY     81  64  57 SE8       29.96S
SHELDON        SUNNY     81  64  57 SE10G16   29.96R
SIOUX CITY     SUNNY     83  66  56 SE13      29.93F
6HR MIN TEMP:  80; 6HR MAX TEMP:  85;

SPENCER        SUNNY     80  62  54 SE12      29.99S
6HR MIN TEMP:  78; 6HR MAX TEMP:  83;

STORM LAKE     SUNNY     79  63  57 S13       29.99S
$$

ABBREVIATIONS USED IN REMARKS
   TC - TEMPERATURE IN CELSIUS
  WCI - WIND CHILL INDEX
   HX - HEAT INDEX
  VSB - VISIBILITY




USA.gov is the U.S. government's official web portal to all federal, state and local government web resources and services.